AEE218 LCPH-LGAV

Flight info

Callsign AEE218
Flight time 1h 21m
Altitude 40000
Route GENOS M42 ALKIS UL609 RDS UL995 VARIX
Aircraft B737/M-SDE2E3FGHIRWXY/LB1

Departure

Time 2026-04-14 15:46
Airport Paphos International Airport (LCPH)

Arrival

Time 2026-04-14 17:07
Airport Athens Eleftherios Venizelos International Airport (LGAV)
Time Latitude Longitude Altitude Speed Heading
2026-04-14 15:21 34.71268 32.48561 45 ft 0 kts 157°
2026-04-14 15:35 34.71271 32.48559 45 ft 2 kts 156°
2026-04-14 15:36 34.71288 32.48550 42 ft 3 kts 154°
2026-04-14 15:36 34.71306 32.48539 42 ft 3 kts 149°
2026-04-14 15:36 34.71323 32.48526 42 ft 3 kts 139°
2026-04-14 15:36 34.71335 32.48509 43 ft 3 kts 110°
2026-04-14 15:37 34.71338 32.48493 41 ft 1 kts 65°
2026-04-14 15:37 34.71337 32.48491 41 ft 0 kts 63°
2026-04-14 15:39 34.71341 32.48499 43 ft 6 kts 63°
2026-04-14 15:39 34.71361 32.48550 43 ft 7 kts 64°
2026-04-14 15:39 34.71389 32.48621 45 ft 12 kts 65°
2026-04-14 15:39 34.71424 32.48717 45 ft 12 kts 65°
2026-04-14 15:40 34.71459 32.48811 45 ft 12 kts 66°
2026-04-14 15:40 34.71483 32.48875 45 ft 5 kts 66°
2026-04-14 15:40 34.71501 32.48924 45 ft 7 kts 66°
2026-04-14 15:40 34.71516 32.48956 45 ft 0 kts 49°
2026-04-14 15:43 34.71522 32.48962 45 ft 6 kts 42°
2026-04-14 15:43 34.71571 32.48990 45 ft 9 kts 21°
2026-04-14 15:43 34.71632 32.49052 47 ft 13 kts 79°
2026-04-14 15:44 34.71611 32.49162 46 ft 15 kts 110°
2026-04-14 15:44 34.71572 32.49293 44 ft 18 kts 110°
2026-04-14 15:44 34.71527 32.49438 40 ft 19 kts 111°
2026-04-14 15:44 34.71481 32.49582 43 ft 18 kts 111°
2026-04-14 15:45 34.71443 32.49707 42 ft 10 kts 116°
2026-04-14 15:45 34.71394 32.49769 43 ft 10 kts 141°
2026-04-14 15:45 34.71386 32.49810 43 ft 6 kts 45°
2026-04-14 15:45 34.71419 32.49792 43 ft 6 kts 295°
2026-04-14 15:46 34.71419 32.49791 43 ft 0 kts 295°
2026-04-14 15:46 34.71480 32.49605 43 ft 72 kts 290°
2026-04-14 15:46 34.71780 32.48639 118 ft 163 kts 291°
2026-04-14 15:46 34.72247 32.47224 1000 ft 194 kts 292°
2026-04-14 15:47 34.72543 32.45593 2276 ft 209 kts 271°
2026-04-14 15:47 34.72111 32.43755 3188 ft 239 kts 249°
2026-04-14 15:47 34.71569 32.41800 4455 ft 247 kts 253°
2026-04-14 15:47 34.71079 32.39786 5822 ft 252 kts 253°
2026-04-14 15:48 34.70570 32.37637 6863 ft 275 kts 253°
2026-04-14 15:48 34.70212 32.36138 7657 ft 282 kts 253°
2026-04-14 15:48 34.69686 32.33820 9126 ft 283 kts 255°
2026-04-14 15:48 34.69040 32.30762 11059 ft 285 kts 256°
2026-04-14 15:49 34.68504 32.28328 11781 ft 313 kts 256°
2026-04-14 15:49 34.68113 32.26529 11998 ft 339 kts 256°
2026-04-14 15:49 34.67507 32.23713 12827 ft 354 kts 256°
2026-04-14 15:49 34.66885 32.20812 14166 ft 355 kts 256°
2026-04-14 15:50 34.66268 32.17897 15368 ft 357 kts 258°
2026-04-14 15:50 34.66058 32.14902 16514 ft 357 kts 274°
2026-04-14 15:50 34.66278 32.11885 17646 ft 359 kts 276°
2026-04-14 15:50 34.66530 32.08852 18671 ft 362 kts 276°
2026-04-14 15:51 34.66779 32.05788 19515 ft 367 kts 275°
2026-04-14 15:51 34.67017 32.02687 20289 ft 372 kts 275°
2026-04-14 15:51 34.67246 31.99527 20991 ft 378 kts 275°
2026-04-14 15:51 34.67472 31.96316 21690 ft 384 kts 275°
2026-04-14 15:52 34.67694 31.93099 22372 ft 389 kts 275°
2026-04-14 15:52 34.67974 31.89809 23019 ft 395 kts 280°
2026-04-14 15:52 34.68712 31.86568 23649 ft 401 kts 287°
2026-04-14 15:52 34.69627 31.83350 24201 ft 405 kts 289°
2026-04-14 15:53 34.70591 31.80112 24812 ft 406 kts 289°
2026-04-14 15:53 34.71552 31.76888 25511 ft 404 kts 289°
2026-04-14 15:53 34.72497 31.73676 26153 ft 404 kts 289°
2026-04-14 15:53 34.73436 31.70436 26645 ft 407 kts 289°
2026-04-14 15:54 34.75301 31.63886 27590 ft 412 kts 289°
2026-04-14 15:54 34.76221 31.60620 28043 ft 414 kts 289°
2026-04-14 15:54 34.77154 31.57294 28498 ft 416 kts 289°
2026-04-14 15:55 34.78089 31.53959 28918 ft 418 kts 289°
2026-04-14 15:55 34.79027 31.50605 29298 ft 420 kts 289°
2026-04-14 15:55 34.79971 31.47224 29597 ft 424 kts 289°
2026-04-14 15:55 34.80921 31.43819 29942 ft 426 kts 289°
2026-04-14 15:56 34.81874 31.40402 30312 ft 427 kts 289°
2026-04-14 15:56 34.82825 31.36983 30749 ft 425 kts 289°
2026-04-14 15:56 34.83765 31.33600 31336 ft 419 kts 289°
2026-04-14 15:56 34.84691 31.30266 31972 ft 412 kts 289°
2026-04-14 15:57 34.85603 31.26978 32549 ft 407 kts 289°
2026-04-14 15:57 34.86506 31.23721 33038 ft 404 kts 289°
2026-04-14 15:57 34.87404 31.20476 33497 ft 402 kts 288°
2026-04-14 15:57 34.88292 31.17264 33997 ft 398 kts 288°
2026-04-14 15:58 34.89160 31.14121 34470 ft 394 kts 288°
2026-04-14 15:58 34.90029 31.10972 34889 ft 391 kts 288°
2026-04-14 15:58 34.90892 31.07839 35279 ft 388 kts 288°
2026-04-14 15:58 34.91750 31.04720 35677 ft 386 kts 289°
2026-04-14 15:59 34.92597 31.01638 36082 ft 382 kts 289°
2026-04-14 15:59 34.93437 30.98578 36494 ft 379 kts 289°
2026-04-14 15:59 34.94273 30.95531 36888 ft 377 kts 289°
2026-04-14 15:59 34.95089 30.92553 37298 ft 373 kts 288°
2026-04-14 16:00 34.95905 30.89569 37747 ft 369 kts 288°
2026-04-14 16:00 34.96712 30.86619 38146 ft 366 kts 288°
2026-04-14 16:00 34.97515 30.83678 38535 ft 363 kts 289°
2026-04-14 16:00 34.98309 30.80766 38891 ft 361 kts 289°
2026-04-14 16:01 34.99099 30.77866 39102 ft 360 kts 288°
2026-04-14 16:01 34.99890 30.74959 39230 ft 362 kts 288°
2026-04-14 16:01 35.00689 30.72019 39272 ft 367 kts 288°
2026-04-14 16:02 35.02298 30.66092 39448 ft 371 kts 288°
2026-04-14 16:02 35.03109 30.63101 39610 ft 372 kts 288°
2026-04-14 16:02 35.03922 30.60098 39765 ft 372 kts 288°
2026-04-14 16:02 35.04735 30.57091 39900 ft 374 kts 288°
2026-04-14 16:03 35.05549 30.54075 40052 ft 374 kts 288°
2026-04-14 16:03 35.06364 30.51055 40161 ft 376 kts 288°
2026-04-14 16:03 35.07186 30.48004 40176 ft 380 kts 288°
2026-04-14 16:04 35.08849 30.41825 40192 ft 386 kts 288°
2026-04-14 16:04 35.10527 30.35574 40193 ft 388 kts 287°
2026-04-14 16:05 35.12210 30.29288 40168 ft 385 kts 287°
2026-04-14 16:05 35.13827 30.23239 40186 ft 374 kts 287°
2026-04-14 16:06 35.15442 30.17179 40191 ft 375 kts 287°
2026-04-14 16:06 35.17058 30.11101 40197 ft 375 kts 287°
2026-04-14 16:07 35.18672 30.05020 40189 ft 376 kts 287°
2026-04-14 16:07 35.20667 29.99148 40197 ft 378 kts 296°
2026-04-14 16:08 35.23698 29.93834 40187 ft 381 kts 302°
2026-04-14 16:08 35.26892 29.88643 40187 ft 381 kts 302°
2026-04-14 16:09 35.30074 29.83447 40187 ft 381 kts 302°
2026-04-14 16:09 35.33245 29.78238 40184 ft 382 kts 302°
2026-04-14 16:10 35.36395 29.73045 40188 ft 382 kts 302°
2026-04-14 16:10 35.39562 29.67814 40183 ft 382 kts 302°
2026-04-14 16:11 35.42724 29.62582 40183 ft 382 kts 302°
2026-04-14 16:11 35.45888 29.57340 40182 ft 382 kts 302°
2026-04-14 16:12 35.49047 29.52099 40185 ft 382 kts 301°
2026-04-14 16:12 35.52207 29.46847 40186 ft 382 kts 301°
2026-04-14 16:13 35.55368 29.41586 40190 ft 382 kts 301°
2026-04-14 16:13 35.58521 29.36330 40184 ft 382 kts 301°
2026-04-14 16:14 35.61656 29.31096 40185 ft 382 kts 301°
2026-04-14 16:14 35.64804 29.25833 40185 ft 381 kts 301°
2026-04-14 16:15 35.67948 29.20569 40183 ft 382 kts 301°
2026-04-14 16:15 35.71091 29.15298 40186 ft 381 kts 301°
2026-04-14 16:16 35.74212 29.10056 40188 ft 382 kts 301°
2026-04-14 16:16 35.77348 29.04781 40193 ft 382 kts 301°
2026-04-14 16:17 35.80488 28.99489 40194 ft 382 kts 301°
2026-04-14 16:17 35.83628 28.94191 40195 ft 382 kts 300°
2026-04-14 16:18 35.86762 28.88895 40195 ft 383 kts 300°
2026-04-14 16:18 35.89878 28.83619 40193 ft 383 kts 300°
2026-04-14 16:19 35.93016 28.78302 40208 ft 383 kts 300°
2026-04-14 16:19 35.96162 28.72965 40189 ft 384 kts 300°
2026-04-14 16:20 35.99310 28.67640 40194 ft 384 kts 301°
2026-04-14 16:20 36.02460 28.62303 40194 ft 384 kts 300°
2026-04-14 16:21 36.05589 28.56991 40203 ft 384 kts 300°
2026-04-14 16:21 36.08731 28.51647 40197 ft 384 kts 300°
2026-04-14 16:22 36.11874 28.46294 40202 ft 384 kts 300°
2026-04-14 16:22 36.15008 28.40940 40191 ft 384 kts 300°
2026-04-14 16:23 36.18132 28.35577 40207 ft 384 kts 300°
2026-04-14 16:23 36.21256 28.30203 40192 ft 384 kts 300°
2026-04-14 16:24 36.24377 28.24828 40195 ft 384 kts 300°
2026-04-14 16:24 36.27498 28.19445 40201 ft 384 kts 300°
2026-04-14 16:25 36.30598 28.14089 40190 ft 384 kts 300°
2026-04-14 16:25 36.33684 28.08673 40185 ft 382 kts 296°
2026-04-14 16:26 36.35995 28.02796 40188 ft 378 kts 289°
2026-04-14 16:26 36.38116 27.96818 40182 ft 378 kts 289°
2026-04-14 16:27 36.40250 27.90846 40186 ft 378 kts 289°
2026-04-14 16:27 36.42388 27.84879 40187 ft 378 kts 289°
2026-04-14 16:28 36.44511 27.78952 40188 ft 378 kts 289°
2026-04-14 16:28 36.46641 27.72991 40190 ft 378 kts 289°
2026-04-14 16:29 36.48768 27.67012 40187 ft 378 kts 289°
2026-04-14 16:29 36.50887 27.61035 40187 ft 378 kts 289°
2026-04-14 16:30 36.53002 27.55056 40185 ft 378 kts 289°
2026-04-14 16:30 36.55118 27.49066 40190 ft 378 kts 289°
2026-04-14 16:31 36.57218 27.43110 40185 ft 378 kts 289°
2026-04-14 16:31 36.59330 27.37108 40186 ft 379 kts 289°
2026-04-14 16:32 36.61444 27.31087 40185 ft 379 kts 289°
2026-04-14 16:32 36.62504 27.28064 40020 ft 383 kts 289°
2026-04-14 16:32 36.63567 27.25028 39774 ft 381 kts 289°
2026-04-14 16:32 36.64614 27.22042 39519 ft 373 kts 289°
2026-04-14 16:33 36.65650 27.19083 39301 ft 372 kts 288°
2026-04-14 16:33 36.66679 27.16135 39076 ft 370 kts 288°
2026-04-14 16:33 36.67704 27.13197 38842 ft 369 kts 288°
2026-04-14 16:33 36.68710 27.10306 38567 ft 368 kts 288°
2026-04-14 16:34 36.69725 27.07385 38291 ft 368 kts 288°
2026-04-14 16:34 36.71759 27.01517 38192 ft 369 kts 288°
2026-04-14 16:35 36.73812 26.95580 38185 ft 375 kts 288°
2026-04-14 16:35 36.75867 26.89634 38182 ft 375 kts 288°
2026-04-14 16:36 36.77933 26.83646 38182 ft 375 kts 288°
2026-04-14 16:36 36.79994 26.77658 38186 ft 375 kts 287°
2026-04-14 16:37 36.82054 26.71663 38187 ft 376 kts 287°
2026-04-14 16:37 36.84112 26.65668 38187 ft 376 kts 287°
2026-04-14 16:38 36.86170 26.59673 38185 ft 376 kts 287°
2026-04-14 16:38 36.88215 26.53706 38192 ft 376 kts 287°
2026-04-14 16:39 36.90268 26.47694 38184 ft 376 kts 287°
2026-04-14 16:39 36.91982 26.42658 38186 ft 376 kts 287°
2026-04-14 16:40 36.94014 26.36674 38188 ft 376 kts 287°
2026-04-14 16:40 36.96054 26.30654 38188 ft 376 kts 287°
2026-04-14 16:41 36.98094 26.24629 38206 ft 376 kts 287°
2026-04-14 16:41 37.00147 26.18578 38196 ft 377 kts 287°
2026-04-14 16:42 37.02202 26.12524 38183 ft 378 kts 287°
2026-04-14 16:42 37.04245 26.06491 38195 ft 380 kts 287°
2026-04-14 16:43 37.06307 26.00388 38191 ft 381 kts 287°
2026-04-14 16:43 37.08368 25.94275 38194 ft 382 kts 287°
2026-04-14 16:44 37.10435 25.88128 38186 ft 383 kts 287°
2026-04-14 16:44 37.12508 25.81952 37877 ft 388 kts 287°
2026-04-14 16:45 37.14589 25.75737 36885 ft 389 kts 287°
2026-04-14 16:45 37.15639 25.72599 36416 ft 391 kts 287°
2026-04-14 16:45 37.16692 25.69448 35934 ft 393 kts 287°
2026-04-14 16:45 37.17749 25.66282 35496 ft 394 kts 287°
2026-04-14 16:46 37.18812 25.63092 35053 ft 396 kts 287°
2026-04-14 16:46 37.19883 25.59874 34598 ft 404 kts 287°
2026-04-14 16:46 37.20975 25.56589 34081 ft 409 kts 287°
2026-04-14 16:46 37.22070 25.53297 33509 ft 408 kts 288°
2026-04-14 16:47 37.23162 25.50006 32953 ft 409 kts 287°
2026-04-14 16:47 37.24245 25.46677 32411 ft 412 kts 287°
2026-04-14 16:47 37.25312 25.43375 31882 ft 415 kts 288°
2026-04-14 16:47 37.26402 25.40004 31364 ft 417 kts 288°
2026-04-14 16:48 37.27495 25.36619 30839 ft 419 kts 288°
2026-04-14 16:48 37.28506 25.33182 30310 ft 420 kts 285°
2026-04-14 16:48 37.29442 25.29697 29740 ft 422 kts 284°
2026-04-14 16:48 37.30357 25.26191 29133 ft 423 kts 284°
2026-04-14 16:49 37.31277 25.22665 28549 ft 425 kts 284°
2026-04-14 16:49 37.32209 25.19130 27969 ft 426 kts 285°
2026-04-14 16:49 37.33140 25.15631 27408 ft 428 kts 285°
2026-04-14 16:49 37.34090 25.12072 26852 ft 430 kts 285°
2026-04-14 16:50 37.35045 25.08494 26309 ft 432 kts 285°
2026-04-14 16:50 37.36271 25.05012 25744 ft 441 kts 298°
2026-04-14 16:50 37.38198 25.01967 25230 ft 451 kts 311°
2026-04-14 16:50 37.40685 24.99517 24732 ft 457 kts 320°
2026-04-14 16:51 37.43325 24.97288 24202 ft 454 kts 322°
2026-04-14 16:51 37.45950 24.95134 23652 ft 446 kts 322°
2026-04-14 16:51 37.48530 24.93018 23023 ft 440 kts 322°
2026-04-14 16:51 37.51083 24.90901 22424 ft 439 kts 322°
2026-04-14 16:52 37.53619 24.88773 21841 ft 438 kts 322°
2026-04-14 16:52 37.56148 24.86631 21260 ft 439 kts 322°
2026-04-14 16:52 37.58649 24.84502 20684 ft 439 kts 322°
2026-04-14 16:52 37.61177 24.82344 20131 ft 438 kts 323°
2026-04-14 16:53 37.63702 24.80186 19577 ft 437 kts 323°
2026-04-14 16:53 37.66213 24.78039 18994 ft 435 kts 323°
2026-04-14 16:53 37.68688 24.75923 18339 ft 419 kts 323°
2026-04-14 16:53 37.71049 24.73907 17605 ft 399 kts 323°
2026-04-14 16:54 37.73296 24.71985 16910 ft 384 kts 323°
2026-04-14 16:54 37.75504 24.70092 16238 ft 381 kts 323°
2026-04-14 16:54 37.77687 24.68216 15575 ft 378 kts 323°
2026-04-14 16:54 37.79849 24.66358 14961 ft 374 kts 323°
2026-04-14 16:55 37.81988 24.64518 14393 ft 370 kts 323°
2026-04-14 16:55 37.84084 24.62716 13821 ft 366 kts 323°
2026-04-14 16:55 37.86179 24.60912 13158 ft 363 kts 323°
2026-04-14 16:55 37.88265 24.59123 12440 ft 362 kts 324°
2026-04-14 16:56 37.90389 24.57413 11743 ft 361 kts 326°
2026-04-14 16:56 37.92505 24.55764 11078 ft 350 kts 326°
2026-04-14 16:56 37.94545 24.54191 10499 ft 338 kts 326°
2026-04-14 16:56 37.96554 24.52654 9926 ft 339 kts 326°
2026-04-14 16:57 37.98589 24.51100 9314 ft 342 kts 326°
2026-04-14 16:57 38.00622 24.49549 8691 ft 339 kts 326°
2026-04-14 16:57 38.02623 24.47990 8092 ft 334 kts 322°
2026-04-14 16:57 38.04254 24.46028 7491 ft 321 kts 308°
2026-04-14 16:58 38.05626 24.43888 7151 ft 301 kts 306°
2026-04-14 16:58 38.06878 24.41878 7017 ft 280 kts 306°
2026-04-14 16:58 38.08064 24.40005 6986 ft 267 kts 306°
2026-04-14 16:58 38.09206 24.38148 6989 ft 266 kts 304°
2026-04-14 16:59 38.10361 24.36282 6920 ft 271 kts 304°
2026-04-14 16:59 38.11558 24.34382 6531 ft 274 kts 305°
2026-04-14 16:59 38.12732 24.32536 6135 ft 264 kts 305°
2026-04-14 16:59 38.13871 24.30762 5772 ft 255 kts 305°
2026-04-14 17:00 38.14983 24.29037 5383 ft 249 kts 306°
2026-04-14 17:00 38.15923 24.27250 5001 ft 238 kts 287°
2026-04-14 17:00 38.16084 24.25242 4528 ft 231 kts 257°
2026-04-14 17:00 38.15552 24.23353 4112 ft 224 kts 246°
2026-04-14 17:01 38.14924 24.21641 3982 ft 201 kts 245°
2026-04-14 17:01 38.14356 24.20097 3987 ft 190 kts 246°
2026-04-14 17:01 38.13780 24.18598 3987 ft 188 kts 245°
2026-04-14 17:01 38.13238 24.17112 3956 ft 179 kts 246°
2026-04-14 17:02 38.12717 24.15726 3955 ft 171 kts 245°
2026-04-14 17:02 38.12197 24.14352 3830 ft 176 kts 245°
2026-04-14 17:02 38.11618 24.12970 3658 ft 179 kts 233°
2026-04-14 17:02 38.10689 24.11936 3498 ft 176 kts 221°
2026-04-14 17:03 38.09742 24.10970 3302 ft 172 kts 222°
2026-04-14 17:03 38.08835 24.10049 3120 ft 167 kts 221°
2026-04-14 17:03 38.07898 24.09152 3043 ft 169 kts 218°
2026-04-14 17:03 38.06967 24.08275 2983 ft 165 kts 219°
2026-04-14 17:04 38.06038 24.07413 2955 ft 168 kts 219°
2026-04-14 17:04 38.05108 24.06483 2779 ft 172 kts 220°
2026-04-14 17:04 38.04152 24.05572 2550 ft 171 kts 218°
2026-04-14 17:04 38.03204 24.04686 2323 ft 168 kts 220°
2026-04-14 17:05 38.02294 24.03803 2121 ft 160 kts 219°
2026-04-14 17:05 38.01430 24.02977 1889 ft 150 kts 216°
2026-04-14 17:05 38.00618 24.02236 1725 ft 139 kts 218°
2026-04-14 17:05 37.99851 24.01463 1511 ft 140 kts 217°
2026-04-14 17:06 37.99087 24.00741 1319 ft 135 kts 216°
2026-04-14 17:06 37.98353 24.00043 1134 ft 134 kts 216°
2026-04-14 17:06 37.97597 23.99323 885 ft 138 kts 216°
2026-04-14 17:06 37.96837 23.98595 692 ft 139 kts 217°
2026-04-14 17:07 37.96054 23.97835 561 ft 143 kts 217°
2026-04-14 17:07 37.95261 23.97081 398 ft 140 kts 216°
2026-04-14 17:07 37.94498 23.96361 290 ft 129 kts 216°
2026-04-14 17:07 37.93970 23.95864 279 ft 37 kts 217°
2026-04-14 17:08 37.93878 23.95743 278 ft 14 kts 232°
2026-04-14 17:08 37.93831 23.95639 281 ft 13 kts 245°
2026-04-14 17:08 37.93825 23.95621 282 ft 0 kts 247°
2026-04-14 17:08 37.93823 23.95615 283 ft 8 kts 247°
2026-04-14 17:09 37.93797 23.95537 288 ft 10 kts 247°
2026-04-14 17:09 37.93771 23.95460 293 ft 9 kts 247°
2026-04-14 17:09 37.93740 23.95373 297 ft 11 kts 234°
2026-04-14 17:09 37.93674 23.95299 298 ft 13 kts 219°
2026-04-14 17:10 37.93660 23.95209 300 ft 2 kts 298°
2026-04-14 17:10 37.93685 23.95164 300 ft 10 kts 307°
2026-04-14 17:10 37.93734 23.95105 299 ft 10 kts 332°
2026-04-14 17:10 37.93777 23.95047 300 ft 6 kts 308°
2026-04-14 17:11 37.93795 23.95018 301 ft 0 kts 307°